Tracking 19192 objects as of 18-Jun-2018
HD Live streaming from Space Station
objects crossing your sky now

FENGYUN 1C DEB

Track FENGYUN 1C DEB now!
10-day predictions


NORAD ID: 35229
Int'l Code: 1999-025DQM
Perigee: 784.1 km
Apogee: 915.3 km
Inclination: 98.5 °
Period: 101.8 minutes
Semi major axis: 7220 km
RCS: 0.0123 m2 (small)
Launch date: May 10, 1999
Source: People's Republic of China (PRC)
Launch site: Taiyaun Space Center, China (TSC)

Note: This is SATELLITE DEBRIS
aabbcc
Your satellite tracking list
Your tracking list is empty




NASA's NSSDC Master Catalog

Two Line Element Set (TLE):
1 35229U 99025DQM 18167.12096785 +.00000891 +00000-0 +46418-3 0  9991
2 35229 098.5071 293.5267 0090864 276.6062 082.4776 14.14919296255555
Source of the keplerian elements: AFSPC